• Processing (Info)

  • MPEC 2003-J25 : COMET P/2003 CP7 (LINEAR-NEAT)

    The following Minor Planet Electronic Circular may be linked-to from your own Web pages, but must not otherwise be redistributed electronically.

    A form allowing access to any MPEC is at the bottom of this page.


    Read MPEC 2003-J24 Read MPEC 2003-J26


    M.P.E.C. 2003-J25                                Issued 2003 May 6, 15:39 UT
    
         The Minor Planet Electronic Circulars contain information on unusual
             minor planets and routine data on comets.  They are published
       on behalf of Commission 20 of the International Astronomical Union by the
              Minor Planet Center, Smithsonian Astrophysical Observatory,
                              Cambridge, MA 02138, U.S.A.
    
                 Prepared using the Tamkin Foundation Computer Network
    
                                  MPC@CFA.HARVARD.EDU
              URL http://cfa-www.harvard.edu/iau/mpc.html  ISSN 1523-6714
    
                            COMET P/2003 CP7 (LINEAR-NEAT)
    
    Observations:
        PK03C07P   2003 03 25.53576 11 01 44.25 +17 20 41.1          18.5 T      372
        PK03C07P   2003 03 26.55729 11 01 14.31 +17 25 28.8          19   T      372
        PK03C07P  C2003 05 02.49148 10 55 33.04 +18 11 10.1          18.6 T      360
        PK03C07P  C2003 05 02.49576 10 55 33.05 +18 11 10.1                      360
        PK03C07P  C2003 05 05.93598 10 56 23.89 +18 03 41.1          18.6 N      J95
        PK03C07P  C2003 05 05.95315 10 56 24.13 +18 03 38.8          18.7 N      J95
        PK03C07P  C2003 05 05.96184 10 56 24.27 +18 03 37.3          18.6 N      J95
    
    Observer details:
    360 Kuma Kogen.  Observer A. Nakamura.  0.60-m f/5.8 Ritchey-Chretien + CCD.
    372 Geisei.  Observer T. Seki.  0.60-m f/3.5 reflector.
    J95 Great Shefford.  Observer P. Birtwhistle.  0.30-m f/6.3 Schmidt-Cassegrain
        + CCD.
    
    Orbital elements:
        P/2003 CP7 (LINEAR-NEAT)
    Epoch 2003 May 1.0 TT = JDT 2452760.5
    T 2003 Apr. 29.10775 TT                                 MPC
    q   3.0172320            (2000.0)            P               Q
    n   0.12250661     Peri.   42.56463     -0.98576988     -0.06266967
    a   4.0150999      Node   133.12898     +0.02119067     -0.96683275
    e   0.2485288      Incl.   12.34086     +0.16675942     -0.24760240
    P   8.05
    Residuals in seconds of arc
    030201 704  0.4+  0.1-    030312 673  0.3+  0.4+    030329 360  0.2-  0.3-
    030201 704  1.2+  0.3-    030312 673  0.1+  0.5+    030329 360  0.5-  0.0
    030201 704  0.2-  0.7+    030312 673  0.0   0.2-    030329 360  0.4-  0.1+
    030201 704  0.0   0.2-    030313 J95  0.6-  0.4+    030401 704  0.9+  1.5+
    030203 699 (2.2-  0.6+)   030313 J95  0.1-  0.3-    030401 704 (1.4+  2.3+)
    030203 699  1.0-  0.2-    030320 204  0.1-  0.4+    030401 704  1.1-  1.3+
    030203 699  0.5-  0.1-    030320 204  0.7-  0.3-    030404 246  0.3-  0.1+
    030203 699  1.2-  0.0     030321 213 (0.1-  2.3-)   030404 246  0.4+  0.2-
    030204 704  0.7+  0.3+    030321 213 (2.1-  4.4-)   030404 246  0.6+  0.1+
    030204 704  0.4-  0.3-    030321 213 (2.2-  1.5+)   030404 246  0.6+  0.1-
    030204 704  1.2+  0.5+    030321 213 (0.9+  2.1+)   030404 246  0.3+  0.3+
    030228 704  0.6-  0.4+    030322 246  0.4+  0.2-    030404 246  0.2+  0.0
    030228 704  0.9-  0.2-    030322 246  0.0   0.4-    030404 170  0.1+  0.8+
    030228 704  0.7-  0.2+    030322 246  0.6+  0.3-    030404 170  0.4+  0.4+
    030310 644  0.6+  0.4-    030322 246  0.0   0.4-    030405 170  0.4+  0.4+
    030310 644  0.2+  0.6-    030322 246  0.0   0.3-    030405 170  0.5+  0.2+
    030310 644  0.0   0.1-    030322 246  0.1-  0.1-    030406 J95  0.1-  0.4-
    030311 649  0.1+  0.3-    030322 213 (1.2+  2.1-)   030407 J95  0.0   0.1+
    030311 649  0.1+  0.3-    030322 213 (2.4+  0.8+)   030407 J95  0.2-  0.3+
    030311 926  0.2-  0.0     030322 204  0.6+  0.2-    030410 691  0.4-  0.2+
    030311 670  0.5+  0.2+    030322 204  0.6+  0.3-    030410 691  0.3-  0.5-
    030311 448  0.4+  0.1-    030322 204  0.3-  0.2+    030410 691  0.3-  0.2-
    030311 448  0.3-  0.3+    030323 673  0.0   0.5+    030420 246  0.5-  0.7-
    030311 926  0.0   0.4-    030323 673  0.2-  0.3+    030420 246  0.3-  0.4-
    030311 448  0.2-  0.2-    030323 673  0.5-  0.4+    030420 246  0.7-  0.6-
    030311 448  0.3-  0.3-    030323 673  0.5-  0.5+    030420 246  0.8-  0.1-
    030311 926  0.0   0.1-    030323 246  0.1+  0.2+    030420 246  0.3-  0.6-
    030311 649  0.3-  0.4-    030323 246  0.2+  0.0     030420 246  0.3-  0.4-
    030311 670  0.0   1.3+    030323 246  0.1-  0.1+    030420 213  0.6+  0.1-
    030311 644  0.2+  0.1+    030323 246  0.2+  0.0     030420 213  0.6+  0.5-
    030311 644  0.4+  0.3+    030323 246  0.1+  0.2-    030420 213  1.1-  2.0+
    030311 644  0.4+  0.1+    030323 246  0.2+  0.1+    030421 360  0.9+  0.2-
    030312 850  1.0-  0.5-    030323 246  0.1+  0.3-    030421 360  1.2+  0.2-
    030312 850  0.1+  0.1-    030325 372  0.2-  0.5-    030421 360  0.7+  0.8-
    030312 850  0.4-  0.7-    030326 691  0.2-  0.3+    030502 360  0.5+  0.1-
    030312 670  0.3+  0.0     030326 691  0.2-  0.2+    030502 360  0.0   0.4+
    030312 854  0.6+  0.1+    030326 691  0.5-  0.4+    030505 J95  0.2+  0.1+
    030312 854  0.9+  0.9-    030326 372  0.6-  0.2+    030505 J95  0.4-  0.3+
    030312 854  1.6+  0.1-    030326 360  0.5-  0.5-    030505 J95  0.4-  0.1+
    030312 670  0.4-  0.2-    030326 360  0.1-  0.3-
    030312 673  0.1+  0.5+    030326 360  0.3-  0.1-
    
    Brian G. Marsden             (C) Copyright 2003 MPC           M.P.E.C. 2003-J25
    

    Read MPEC 2003-J24 Read MPEC 2003-J26


    MPEC number:

    Enter an MPEC number in one of the following forms:

    • 1997-B01 (the full form)
    • J97B01 (the packed version of the full form)
    • B01 (the abbreviated form)